Change the Weather History Date:

Sunday, October 21, 2012

  Actual Average Record
Temperature  
Mean Temperature 59 °F -  
Max Temperature 77 °F 67 °F 83 °F (2007)
Min Temperature 41 °F 49 °F 32 °F (2006)
Degree Days  
Heating Degree Days 6    
Growing Degree Days 9 (Base 50)    
Moisture  
Dew Point 48 °F    
Average Humidity 72    
Maximum Humidity 100    
Minimum Humidity 39    
Precipitation  
Precipitation 0.00 in - - ()
Sea Level Pressure  
Sea Level Pressure 30.09 in    
Wind  
Wind Speed 1 mph (South)    
Max Wind Speed 10 mph    
Max Gust Speed -    
Visibility 9 miles    
Events Rain    
Averages and records for this station are not official NWS values.
T = Trace of Precipitation, MM = Missing Value Source: NWS Daily Summary

Daily Weather History Graph

Daily Weather History Graph

Search for Another Location

Airport or City:

Trip Planner

Search our weather history database for the weather conditions in past years. The results will help you decide how hot, cold, wet, or windy it might be!

Date:

Astronomy

Oct. 21, 2012 Rise Set
Actual Time 6:58 AM CDT 6:01 PM CDT
Civil Twilight 6:32 AM CDT 6:28 PM CDT
Nautical Twilight 6:02 AM CDT 6:57 PM CDT
Astronomical Twilight 5:32 AM CDT 7:27 PM CDT
Moon 1:15 PM CDT (10/21) 11:58 PM CDT (10/21)
Length of Visible Light 11h 55m
Length of Day
11h 03m
Waxing Crescent, 45% of the Moon is Illuminated
Oct 21
Waxing Crescent
Oct 21
First Quarter
Oct 29
Full
Nov 6
Last Quarter
Nov 13
New

Hourly Weather History & Observations

Time (CDT) Temp. Dew Point Humidity Pressure Visibility Wind Dir Wind Speed Gust Speed Precip Events Conditions
12:56 AM 43.0 °F 43.0 °F 100% 30.03 in 6.0 mi Calm Calm - N/A   Clear
1:56 AM 43.0 °F 43.0 °F 100% 30.04 in 7.0 mi Calm Calm - N/A   Clear
2:56 AM 41.9 °F 41.9 °F 100% 30.06 in 5.0 mi Calm Calm - N/A   Clear
3:56 AM 41.9 °F 41.9 °F 100% 30.07 in 9.0 mi Calm Calm - N/A   Clear
4:56 AM 41.0 °F 41.0 °F 100% 30.09 in 6.0 mi Calm Calm - N/A   Clear
5:56 AM 41.0 °F 41.0 °F 100% 30.10 in 10.0 mi Calm Calm - N/A   Clear
6:56 AM 41.0 °F 41.0 °F 100% 30.11 in 8.0 mi Calm Calm - N/A   Clear
7:56 AM 43.9 °F 43.9 °F 100% 30.13 in 9.0 mi Calm Calm - N/A   Clear
8:56 AM 52.0 °F 48.9 °F 89% 30.15 in 10.0 mi Calm Calm - N/A   Clear
9:56 AM 59.9 °F 50.9 °F 72% 30.14 in 10.0 mi SSE 8.1 mph - N/A   Clear
10:56 AM 64.9 °F 50.9 °F 60% 30.13 in 10.0 mi South 6.9 mph - N/A   Clear
11:56 AM 70.0 °F 50.9 °F 51% 30.12 in 10.0 mi South 4.6 mph - N/A   Clear
12:56 PM 73.9 °F 50.0 °F 43% 30.10 in 10.0 mi SSW 3.5 mph - N/A   Clear
1:56 PM 75.9 °F 50.0 °F 40% 30.08 in 10.0 mi Calm Calm - N/A   Clear
2:56 PM 77.0 °F 50.0 °F 39% 30.06 in 10.0 mi SSE 10.4 mph - N/A   Clear
3:56 PM 77.9 °F 50.9 °F 39% 30.05 in 10.0 mi Variable 5.8 mph - N/A   Clear
4:56 PM 75.9 °F 50.9 °F 41% 30.05 in 10.0 mi South 6.9 mph - 0.00 in Rain Light Rain
5:56 PM 72.0 °F 52.0 °F 49% 30.07 in 10.0 mi Calm Calm - 0.00 in   Clear
6:56 PM 64.9 °F 52.9 °F 65% 30.08 in 10.0 mi Calm Calm - 0.00 in   Clear
7:56 PM 63.0 °F 52.0 °F 67% 30.09 in 10.0 mi Calm Calm - N/A   Partly Cloudy
8:56 PM 61.0 °F 52.9 °F 75% 30.10 in 10.0 mi Calm Calm - N/A   Partly Cloudy
9:56 PM 63.0 °F 52.0 °F 67% 30.10 in 10.0 mi Calm Calm - N/A   Mostly Cloudy
10:56 PM 63.0 °F 52.0 °F 67% 30.11 in 10.0 mi Calm Calm - N/A   Mostly Cloudy
11:56 PM 63.0 °F 52.0 °F 67% 30.09 in 10.0 mi SSW 5.8 mph - N/A   Mostly Cloudy